TimeWET,TemperatureF,Dew PointF,Humidity,Sea Level PressureIn,VisibilityMPH,Wind Direction,Wind SpeedMPH,Gust SpeedMPH,PrecipitationIn,Events,Conditions,WindDirDegrees,DateUTC
12:00 AM,58,57,97,29.96,5,West,11.5,,,Rain,Rain,270,2013-03-20 00:00:00
12:00 AM,59.0,57.2,94,29.98,5.0,West,9.2,-,N/A,Rain,Rain,260,2013-03-20 00:00:00
12:30 AM,57.2,57.2,100,29.98,3.7,West,11.5,-,N/A,Rain,Rain,260,2013-03-20 00:30:00
1:00 AM,57.2,57.2,100,29.98,-9999.0,West,10.4,-,N/A,Rain,Rain,280,2013-03-20 01:00:00
1:30 AM,57.2,57.2,100,29.98,4.3,West,8.1,-,N/A,Rain,Rain,260,2013-03-20 01:30:00
2:00 AM,57.2,57.2,100,29.98,3.1,West,10.4,-,N/A,Rain,Rain,280,2013-03-20 02:00:00
2:30 AM,57.2,57.2,100,29.98,6.2,West,8.1,-,N/A,Rain,Rain,280,2013-03-20 02:30:00
3:00 AM,57,57,100,29.98,6,WNW,8.1,,,Rain,Rain,290,2013-03-20 03:00:00
3:00 AM,57.2,57.2,100,29.98,6.2,WNW,8.1,-,N/A,Rain,Rain,290,2013-03-20 03:00:00
3:30 AM,57.2,57.2,100,29.98,6.2,West,6.9,-,N/A,Rain,Rain,270,2013-03-20 03:30:00
4:00 AM,57.2,57.2,100,30.01,6.2,West,5.8,-,N/A,Rain,Rain,270,2013-03-20 04:00:00
4:30 AM,55.4,55.4,100,30.01,3.1,NW,6.9,-,N/A,,Mostly Cloudy,320,2013-03-20 04:30:00
5:00 AM,55.4,55.4,100,30.01,6.2,North,4.6,-,N/A,,Mostly Cloudy,350,2013-03-20 05:00:00
5:30 AM,55.4,55.4,100,30.04,5.0,North,3.5,-,N/A,,Mostly Cloudy,350,2013-03-20 05:30:00
5:47 AM,56,55,96,30.04,5,NNE,1.2,,,Rain,Light Rain,20,2013-03-20 05:47:00
6:00 AM,55.4,55.4,100,30.04,5.0,Variable,1.2,-,N/A,,Mostly Cloudy,0,2013-03-20 06:00:00
7:00 AM,55.4,55.4,100,30.06,5.0,ENE,2.3,-,N/A,,Mostly Cloudy,60,2013-03-20 07:00:00
8:00 AM,55.4,55.4,100,30.06,5.0,East,8.1,-,N/A,,Mostly Cloudy,100,2013-03-20 08:00:00
8:30 AM,57.2,55.4,94,30.09,5.0,ENE,6.9,-,N/A,,Mostly Cloudy,70,2013-03-20 08:30:00
9:00 AM,58,55,87,30.09,6,ENE,6.9,,,,Overcast,60,2013-03-20 09:00:00
9:00 AM,57.2,55.4,94,30.09,6.2,NE,5.8,-,N/A,,Mostly Cloudy,50,2013-03-20 09:00:00
9:30 AM,59.0,55.4,88,30.09,6.2,ENE,10.4,-,N/A,,Mostly Cloudy,70,2013-03-20 09:30:00
10:00 AM,60.8,55.4,82,30.09,6.2,NE,8.1,-,N/A,,Mostly Cloudy,50,2013-03-20 10:00:00
11:00 AM,62.6,55.4,77,30.09,6.2,ENE,6.9,-,N/A,,Mostly Cloudy,70,2013-03-20 11:00:00
11:30 AM,64.4,55.4,73,30.09,6.2,NE,6.9,-,N/A,,Mostly Cloudy,50,2013-03-20 11:30:00
12:00 PM,66,56,63,30.04,6,ENE,6.9,,,,Overcast,60,2013-03-20 12:00:00
12:00 PM,64.4,55.4,73,30.06,6.2,NE,6.9,-,N/A,,Mostly Cloudy,50,2013-03-20 12:00:00
12:30 PM,68.0,57.2,68,30.06,6.2,NE,6.9,-,N/A,,Scattered Clouds,40,2013-03-20 12:30:00
1:00 PM,69.8,55.4,60,30.04,6.2,NNE,5.8,-,N/A,,Scattered Clouds,30,2013-03-20 13:00:00
1:30 PM,69.8,53.6,56,30.04,6.2,NE,6.9,-,N/A,,Partly Cloudy,40,2013-03-20 13:30:00
2:00 PM,71.6,53.6,53,30.04,6.2,NE,5.8,-,N/A,,Partly Cloudy,50,2013-03-20 14:00:00
2:30 PM,73.4,53.6,50,30.04,6.2,NE,5.8,-,N/A,,Partly Cloudy,50,2013-03-20 14:30:00
3:00 PM,75,51,32,29.97,6,NW,2.3,,,,Partly Cloudy,310,2013-03-20 15:00:00
3:00 PM,75.2,51.8,44,30.04,6.2,NW,4.6,-,N/A,,Partly Cloudy,320,2013-03-20 15:00:00
3:30 PM,75.2,50.0,41,30.04,6.2,Variable,4.6,-,N/A,,Partly Cloudy,0,2013-03-20 15:30:00
4:00 PM,77.0,50.0,39,30.04,6.2,NE,3.5,-,N/A,,Partly Cloudy,50,2013-03-20 16:00:00
4:30 PM,77.0,51.8,41,30.04,6.2,Variable,3.5,-,N/A,,Partly Cloudy,0,2013-03-20 16:30:00
5:00 PM,77.0,50.0,39,30.04,6.2,Variable,2.3,-,N/A,,Partly Cloudy,0,2013-03-20 17:00:00
5:30 PM,77.0,48.2,36,30.04,6.2,ENE,3.5,-,N/A,,Partly Cloudy,60,2013-03-20 17:30:00
6:00 PM,76,47,25,29.96,6,NNE,3.5,,,,Scattered Clouds,20,2013-03-20 18:00:00
6:00 PM,77.0,50.0,39,30.04,6.2,NNE,3.5,-,N/A,,Partly Cloudy,30,2013-03-20 18:00:00
6:30 PM,75.2,50.0,41,30.04,6.2,NE,3.5,-,N/A,,Partly Cloudy,40,2013-03-20 18:30:00
7:00 PM,68.0,50.0,52,30.04,6.2,NE,4.6,-,N/A,,Partly Cloudy,40,2013-03-20 19:00:00
7:30 PM,68.0,48.2,49,30.04,6.2,NE,10.4,-,N/A,,Partly Cloudy,40,2013-03-20 19:30:00
8:00 PM,66.2,48.2,52,30.04,6.2,NE,9.2,-,N/A,,Partly Cloudy,50,2013-03-20 20:00:00
8:30 PM,64.4,48.2,56,30.04,6.2,NE,6.9,-,N/A,,Partly Cloudy,50,2013-03-20 20:30:00
9:00 PM,64,48,46,30.02,6,ENE,6.9,,,,Scattered Clouds,60,2013-03-20 21:00:00
9:00 PM,64.4,48.2,56,30.04,6.2,ENE,6.9,-,N/A,,Partly Cloudy,60,2013-03-20 21:00:00
9:30 PM,60.8,50.0,68,30.04,-9999.0,East,5.8,-,N/A,,Clear,90,2013-03-20 21:30:00
10:00 PM,59.0,51.8,77,30.04,-9999.0,East,5.8,-,N/A,,Clear,100,2013-03-20 22:00:00
10:30 PM,57.2,51.8,82,30.04,-9999.0,East,4.6,-,N/A,,Clear,90,2013-03-20 22:30:00
11:00 PM,57.2,53.6,88,30.04,-9999.0,ENE,4.6,-,N/A,,Clear,70,2013-03-20 23:00:00
11:30 PM,57.2,51.8,82,30.04,-9999.0,ENE,4.6,-,N/A,,Clear,60,2013-03-20 23:30:00